Overview Statistics Trail Chart Weather Telemetry Raw packets
 

This is the latest recevied weather packets stored in our database for station/object K5SVV. If no packets are shown the sender has not sent any weather packets the latest 10 day(s).

<< 43 44 45 46 47 48 49 >>
Time Temp. Humidity Pressure Rain* Wind** Luminosity Snow
1788366470 32.22° C 59% 1015.5 hPa 0 mm - 701 W/m² -
1788366165 32.78° C 60% 1015.5 hPa 0 mm - 701 W/m² -
1788365860 32.22° C 61% 1015.6 hPa 0 mm - 717 W/m² -
1788365555 31.11° C 62% 1015.5 hPa 0 mm - 732 W/m² -
1788365252 31.11° C 63% 1015.6 hPa 0 mm - 744 W/m² -
1788364946 31.11° C 65% 1015.8 hPa 0 mm - 761 W/m² -
1788364653 31.67° C 63% 1015.5 hPa 0 mm - 739 W/m² -
1788364343 31.11° C 64% 1015.7 hPa 0 mm - 691 W/m² -
1788364038 31.11° C 65% 1015.6 hPa 0 mm - 699 W/m² -
1788363733 30.56° C 64% 1015.7 hPa 0 mm - 678 W/m² -
1788363432 30.56° C 66% 1015.5 hPa 0 mm - 665 W/m² -
1788363127 30.56° C 66% 1015.7 hPa 0 mm - 650 W/m² -
1788362823 30.56° C 67% 1016 hPa 0 mm - 599 W/m² -
1788362518 30.56° C 65% 1015.7 hPa 0 mm - 571 W/m² -
1788362214 30.56° C 66% 1015.6 hPa 0 mm - 547 W/m² -
1788361909 30.56° C 65% 1015.8 hPa 0 mm - 530 W/m² -
1788361604 30.56° C 67% 1015.9 hPa 0 mm - 528 W/m² -
1788361299 30° C 68% 1015.8 hPa 0 mm - 491 W/m² -
1788360998 30° C 68% 1015.7 hPa 0 mm - 461 W/m² -
1788360698 30° C 69% 1015.5 hPa 0 mm - 456 W/m² -
1788360395 30° C 71% 1015.8 hPa 0 mm - 431 W/m² -
1788360090 30° C 70% 1015.6 hPa 0 mm - 75 W/m² -
1788359785 29.44° C 71% 1015.7 hPa 0 mm - 73 W/m² -
1788359481 29.44° C 71% 1015.7 hPa 0 mm - 379 W/m² -
1788359176 29.44° C 71% 1015.9 hPa 0 mm - 361 W/m² -

* Rain latest hour (hover to see other rain measurements)
** Current wind speed in m/s (hover to see current wind gust speed)